Location: Bazugues
(43.4465°N, 0.3432°E)
Time: 06:33:39
(UTC+00:00)

DMSP B5D1-3 - Pass Details

Date: 12 January 2026
Orbit: 758 x 772 km, 98.5° (Epoch: 10 February)

Event Time Altitude Azimuth Distance (km) Brightness Sun altitude
Exits shadow 18:40:15 32° 34° (NE) 1,300 5.3 -20.5°
Maximum altitude 18:42:31 60° 101° (E) 873 4.4 -20.9°
Drops below altitude 10° 18:47:29 10° 181° (S) 2,287 7.1 -21.8°
Sets 18:49:48 0° 185° (S) 3,210 7.9 -22.2°
